Wind_Speed
25 26 27 27 28 29 29 31 32 33 33 33 34 35 36 36 36 38 39 40 41 41 42 42 43 43 43 44 44 44 43 43 42 42 42 41 41 41 40 40 40 41
23 24 25 26 26 27 27 28 30 32 33 33 33 34 35 35 36 38 40 41 42 42 42 43 44 45 46 46 46 46 45 45 44 44 44 44 43 42 42 41 41 42
23 24 25 25 26 26 27 27 29 31 33 33 33 34 34 35 35 37 39 41 42 43 43 44 46 47 47 48 48 49 48 47 47 47 47 46 45 44 44 43 43 43
25 25 25 25 26 26 27 28 29 30 31 32 33 33 34 35 35 36 37 39 40 41 43 44 46 48 49 49 50 51 51 50 50 50 50 49 48 47 46 46 46 45
26 26 26 26 27 27 28 29 30 30 31 32 32 33 34 35 35 36 37 37 38 38 40 42 45 48 49 51 52 52 53 53 53 53 53 53 52 51 50 49 49 48
26 27 27 27 28 29 30 30 30 31 31 32 33 34 35 36 37 37 38 38 38 38 38 41 43 46 48 50 52 53 54 54 55 55 55 55 55 54 53 53 53 52
26 26 27 28 28 29 30 30 30 31 32 33 34 35 37 38 39 40 40 41 41 40 40 41 43 44 46 48 50 52 53 54 55 56 57 57 57 56 56 56 56 55
26 26 27 28 29 29 30 30 31 32 32 34 35 37 38 40 41 42 43 44 45 45 44 43 44 45 46 47 49 50 51 53 54 55 56 57 58 58 57 57 57 57
26 27 28 29 30 30 31 31 32 33 34 35 36 37 38 40 41 42 44 45 46 47 47 46 46 47 48 48 49 50 50 51 52 53 55 56 57 57 57 57 57 57
28 29 29 30 31 32 33 33 34 35 36 37 38 38 39 40 41 41 43 44 45 46 46 47 47 48 49 50 50 51 51 51 52 53 54 55 55 56 56 57 58 58
28 29 30 31 32 33 35 36 37 38 39 39 40 40 41 41 42 41 42 43 44 44 44 45 45 46 48 49 50 51 51 52 52 53 53 54 55 56 56 57 58 58
29 31 32 33 34 36 37 38 39 39 40 41 41 42 42 42 42 42 41 42 43 44 44 43 43 44 45 47 48 48 49 50 50 51 51 52 53 54 56 57 58 59
31 33 34 36 37 38 39 40 41 41 42 42 43 43 43 43 43 42 42 42 43 44 44 43 43 44 44 45 46 47 48 48 48 49 49 49 50 51 53 55 57 59
34 36 37 39 40 41 41 42 43 43 43 44 44 44 44 44 44 44 43 43 44 45 45 45 45 45 46 46 47 48 48 49 49 50 50 50 50 51 52 53 55 57
37 39 40 41 42 43 43 44 44 44 45 45 45 46 46 46 46 46 46 46 46 47 48 48 48 49 49 49 50 51 51 52 52 53 53 53 53 53 54 55 56 56
40 41 42 43 44 44 45 45 45 45 45 46 46 46 46 47 47 47 47 47 47 49 49 50 50 51 51 52 52 53 53 54 55 55 55 56 56 56 56 57 57 57
41 42 43 43 44 45 45 45 45 45 45 45 45 45 45 46 46 46 47 47 47 48 49 50 51 51 52 52 53 54 54 55 56 56 57 57 57 57 58 58 57 57
41 42 42 43 43 43 43 43 43 43 43 43 44 44 44 45 45 46 47 47 48 49 50 51 51 52 53 53 54 54 55 55 56 56 57 57 57 57 57 57 57 56
41 41 41 42 42 42 42 42 42 43 43 44 44 45 45 46 47 48 49 50 51 51 52 53 53 53 54 54 54 54 54 55 55 56 56 56 56 56 56 55 55 55
42 42 42 42 42 42 42 43 43 44 45 46 47 47 49 49 50 51 52 53 54 54 55 55 55 55 54 54 54 54 54 54 54 54 54 54 54 54 53 53 53 54
43 42 42 42 43 43 44 45 45 46 47 49 50 51 52 53 54 55 55 55 56 56 56 56 55 55 54 53 53 52 52 53 53 52 52 51 51 51 51 51 51 52
43 43 43 44 45 46 46 48 49 50 51 52 53 54 54 55 56 56 56 56 56 55 56 55 54 53 52 51 51 50 49 51 52 51 49 48 48 48 48 49 50 52
45 45 46 47 47 49 50 51 52 53 54 54 55 55 55 55 55 55 55 54 54 53 53 53 52 51 50 49 48 47 46 48 50 49 47 45 45 45 46 48 50 51
47 48 50 50 51 52 53 54 54 54 54 54 54 54 54 53 53 53 52 51 51 50 50 49 49 48 47 46 46 44 43 44 45 45 44 43 43 43 45 46 48 49
51 52 53 53 54 54 54 54 54 53 53 52 51 50 50 49 49 49 48 48 47 47 46 46 46 45 44 43 43 42 42 42 43 43 43 43 42 42 43 44 44 45
53 54 54 54 55 54 53 52 51 51 50 49 48 47 47 47 47 47 46 46 45 45 44 44 44 43 42 42 41 41 40 40 41 42 43 42 42 41 41 41 41 41
Wind_Direction
258 260 262 262 263 264 265 267 268 269 268 267 265 265 264 262 260 260 260 259 259 259 260 261 261 262 262 262 261 260 260 260 261 262 262 263 264 266 266 267 269 271
259 260 263 264 266 267 268 270 271 271 271 271 270 269 268 266 263 261 261 260 260 260 260 261 262 262 263 263 263 262 262 261 261 262 262 263 264 265 266 267 269 270
260 261 263 266 267 268 269 269 269 271 272 273 273 273 273 272 270 268 265 264 263 262 262 262 262 263 263 264 264 264 264 263 263 263 263 263 264 265 266 267 268 269
262 263 263 265 266 267 268 268 268 270 272 274 275 276 275 275 273 272 271 270 269 267 265 264 264 264 264 264 265 265 265 265 264 264 264 264 265 265 266 266 267 268
263 264 264 264 265 266 267 268 268 269 270 272 274 276 275 275 274 274 274 273 273 272 270 268 267 266 266 265 265 266 266 266 265 265 265 265 266 266 266 266 267 268
265 266 267 267 268 268 268 269 270 270 271 272 273 274 274 274 275 274 274 274 273 273 272 272 270 269 268 268 267 267 267 267 267 267 267 266 267 267 267 268 268 269
266 267 268 269 269 270 270 271 272 273 273 273 273 273 274 274 275 274 274 274 272 271 270 271 271 271 271 271 270 270 269 269 268 268 268 268 268 268 269 269 270 270
268 269 269 270 271 272 273 274 275 275 275 275 275 275 275 275 276 276 275 275 274 272 271 269 269 270 271 272 272 272 272 272 271 271 271 270 270 270 270 271 271 271
270 271 271 272 273 274 275 276 277 278 278 278 278 278 278 277 277 277 277 276 276 275 274 273 271 270 270 271 271 272 273 274 273 273 272 272 272 271 271 271 271 271
272 273 274 275 277 278 278 279 280 280 281 281 281 280 279 278 278 277 277 277 276 276 276 275 274 273 272 272 272 272 272 273 273 273 273 273 273 273 272 271 271 271
275 276 277 279 280 281 281 282 283 283 283 282 281 280 278 277 276 276 276 276 276 276 276 275 275 274 274 273 273 273 273 273 273 273 273 273 273 273 273 272 271 271
278 280 281 282 283 284 284 284 284 283 282 281 279 278 276 275 275 275 275 275 275 275 275 275 275 275 274 274 274 274 274 274 274 274 274 274 273 273 273 272 272 271
283 284 285 286 286 285 285 284 283 281 280 278 277 276 275 274 273 273 273 273 273 273 274 274 274 274 274 274 275 275 275 276 276 276 276 275 275 274 273 272 272 271
287 287 287 287 286 285 284 282 281 279 278 276 275 274 274 273 272 271 271 271 272 272 273 273 274 274 274 274 275 275 275 276 276 276 276 276 276 275 274 273 272 271
288 288 287 286 285 284 282 281 279 277 276 275 274 274 274 273 273 273 272 272 272 273 273 274 274 274 275 275 275 275 275 275 275 275 275 275 274 274 274 273 273 273
288 287 287 285 284 282 281 279 278 277 276 275 275 275 275 275 275 275 275 275 274 274 275 275 275 275 275 275 275 275 275 275 275 275 274 274 274 273 273 273 273 272
288 287 285 284 282 281 279 278 277 277 276 276 276 276 276 277 277 277 277 277 276 276 276 276 276 276 276 276 275 275 275 275 274 274 274 273 273 273 272 272 271 270
287 285 284 282 281 280 278 278 277 277 277 277 277 277 277 278 278 278 278 278 278 278 278 278 278 278 277 277 277 276 276 275 275 274 274 273 273 272 272 271 270 269
287 285 284 282 280 279 278 278 278 278 278 278 278 278 279 279 279 280 280 279 279 279 279 279 278 278 278 277 277 277 276 275 275 274 274 274 273 273 272 271 270 268
287 285 283 281 280 279 279 279 279 279 280 280 280 281 281 281 281 281 281 281 280 280 279 279 279 278 278 278 277 277 276 276 275 275 275 274 274 273 273 271 270 268
286 284 283 282 282 281 281 281 282 282 282 282 282 282 282 282 282 281 281 281 281 280 280 280 279 279 279 279 278 278 278 277 276 276 275 275 274 274 272 271 269 268
285 284 283 283 283 283 284 284 284 284 284 284 284 283 283 282 282 281 281 280 280 280 280 280 280 280 280 280 280 280 279 278 277 277 276 275 275 273 272 270 268 267
286 285 285 285 285 285 285 285 285 285 285 285 284 283 283 282 282 281 281 280 280 280 280 280 280 280 280 280 279 279 278 277 277 277 275 274 273 271 269 267 266 264
288 288 288 288 288 288 287 287 287 286 285 285 284 283 283 282 281 281 280 280 280 279 279 279 279 279 279 279 278 277 276 275 275 275 273 271 269 267 266 265 264 262
290 290 290 290 289 289 288 288 287 286 285 285 284 283 283 282 281 281 280 280 279 279 279 279 278 278 278 278 277 277 275 274 273 273 272 270 269 267 266 265 263 262
291 291 291 290 290 289 288 288 287 286 285 285 284 283 283 282 282 281 281 280 280 279 279 278 278 278 277 277 277 276 275 273 272 272 271 270 269 267 266 264 263 261
Height
3004 3005 3005 3006 3006 3006 3007 3007 3006 3006 3007 3008 3009 3009 3010 3011 3012 3012 3012 3013 3013 3013 3013 3014 3014 3013 3014 3014 3014 3015 3016 3016 3016 3017 3017 3017 3017 3017 3017 3017 3017 3017
3001 3001 3001 3001 3002 3002 3003 3003 3003 3002 3002 3003 3004 3004 3005 3006 3007 3007 3007 3007 3007 3008 3008 3008 3008 3008 3008 3008 3008 3009 3009 3010 3010 3010 3011 3011 3011 3011 3011 3012 3011 3011
2997 2997 2998 2998 2998 2998 2999 2999 2998 2998 2998 2998 2998 2999 3000 3001 3001 3001 3002 3002 3002 3003 3003 3003 3003 3002 3002 3002 3002 3002 3003 3003 3003 3004 3004 3004 3005 3005 3005 3006 3005 3005
2993 2994 2994 2994 2994 2994 2994 2994 2994 2994 2994 2994 2994 2994 2995 2995 2995 2995 2996 2996 2997 2998 2998 2998 2997 2997 2996 2996 2996 2996 2996 2997 2997 2997 2997 2997 2998 2998 2999 2999 2999 2999
2989 2990 2990 2990 2990 2990 2990 2990 2990 2990 2990 2990 2990 2990 2989 2989 2990 2990 2990 2990 2991 2992 2992 2992 2991 2991 2990 2990 2990 2990 2990 2990 2990 2990 2990 2990 2991 2991 2992 2992 2992 2993
2986 2986 2986 2986 2986 2986 2986 2986 2986 2986 2986 2986 2986 2985 2984 2984 2984 2984 2984 2984 2985 2985 2985 2985 2985 2984 2984 2984 2983 2983 2983 2983 2983 2983 2983 2983 2984 2984 2985 2985 2985 2986
2982 2982 2982 2982 2982 2982 2982 2982 2982 2982 2982 2981 2981 2980 2980 2979 2979 2978 2978 2978 2978 2978 2979 2979 2978 2978 2978 2977 2977 2977 2977 2977 2977 2977 2977 2977 2977 2977 2978 2978 2978 2978
2978 2978 2978 2978 2977 2978 2978 2978 2977 2977 2977 2977 2976 2976 2975 2974 2974 2973 2972 2972 2972 2972 2972 2972 2972 2971 2971 2970 2970 2970 2970 2971 2971 2970 2970 2970 2970 2971 2971 2971 2971 2971
2974 2974 2974 2973 2973 2973 2973 2973 2973 2972 2972 2971 2971 2971 2970 2969 2968 2968 2967 2966 2965 2965 2965 2966 2965 2965 2964 2964 2963 2963 2963 2964 2964 2963 2963 2963 2963 2964 2964 2964 2963 2963
2970 2969 2969 2969 2969 2968 2968 2968 2967 2967 2966 2966 2966 2965 2964 2964 2963 2962 2961 2960 2959 2959 2959 2959 2959 2958 2957 2957 2956 2956 2956 2956 2956 2956 2956 2956 2956 2957 2957 2956 2956 2956
2965 2965 2965 2964 2964 2963 2963 2963 2962 2962 2961 2960 2960 2960 2959 2958 2957 2957 2956 2954 2954 2953 2953 2952 2952 2951 2951 2950 2950 2949 2949 2949 2949 2949 2949 2949 2949 2949 2949 2949 2949 2948
2961 2961 2960 2960 2959 2959 2958 2958 2957 2956 2956 2955 2954 2954 2953 2952 2952 2951 2950 2949 2948 2947 2947 2946 2946 2945 2944 2944 2943 2942 2942 2942 2942 2942 2941 2941 2941 2941 2941 2941 2941 2941
2956 2956 2955 2955 2954 2953 2953 2952 2951 2950 2950 2949 2948 2947 2947 2947 2946 2946 2945 2944 2943 2942 2941 2940 2940 2939 2938 2937 2937 2936 2935 2935 2935 2934 2934 2934 2934 2934 2933 2933 2933 2933
2951 2950 2950 2949 2948 2948 2947 2946 2945 2944 2944 2943 2942 2941 2941 2940 2939 2939 2939 2938 2937 2936 2935 2935 2934 2933 2932 2931 2930 2930 2929 2928 2928 2927 2927 2927 2927 2926 2925 2925 2925 2924
2945 2945 2944 2943 2943 2942 2941 2940 2939 2938 2937 2937 2936 2935 2934 2933 2932 2932 2932 2932 2931 2930 2929 2928 2927 2926 2926 2925 2924 2923 2922 2922 2921 2920 2920 2919 2919 2919 2918 2917 2917 2916
2940 2939 2938 2937 2936 2935 2934 2934 2933 2932 2931 2930 2929 2928 2927 2927 2926 2925 2925 2925 2924 2923 2922 2921 2920 2919 2919 2918 2917 2916 2915 2914 2913 2913 2912 2911 2911 2911 2910 2909 2909 2909
2934 2933 2932 2931 2930 2929 2928 2927 2926 2925 2924 2923 2923 2922 2921 2920 2919 2918 2918 2917 2916 2915 2914 2913 2913 2912 2911 2910 2909 2908 2907 2906 2905 2904 2904 2903 2903 2902 2902 2901 2901 2901
2928 2927 2926 2925 2924 2923 2921 2921 2920 2919 2918 2917 2916 2915 2914 2913 2912 2911 2910 2909 2908 2908 2907 2906 2905 2904 2902 2901 2900 2899 2898 2897 2897 2896 2895 2895 2894 2894 2894 2893 2893 2893
2922 2921 2920 2918 2917 2916 2915 2914 2913 2912 2911 2910 2909 2908 2907 2906 2905 2904 2903 2902 2901 2900 2899 2898 2897 2896 2894 2893 2892 2891 2890 2889 2888 2888 2887 2886 2886 2886 2885 2885 2885 2885
2915 2914 2913 2912 2911 2910 2909 2908 2907 2905 2904 2903 2902 2901 2900 2899 2898 2896 2895 2894 2892 2891 2890 2890 2889 2887 2886 2885 2884 2883 2882 2881 2880 2880 2879 2879 2878 2878 2877 2877 2877 2877
2908 2907 2906 2905 2904 2903 2902 2901 2899 2898 2897 2896 2895 2893 2892 2891 2889 2888 2887 2885 2884 2882 2881 2881 2880 2878 2877 2876 2875 2875 2873 2872 2872 2872 2871 2871 2871 2870 2869 2869 2870 2870
2902 2901 2899 2898 2897 2896 2895 2893 2892 2891 2889 2888 2887 2885 2884 2882 2881 2880 2878 2877 2875 2874 2873 2872 2871 2870 2869 2868 2867 2867 2865 2863 2864 2865 2864 2863 2864 2863 2862 2862 2862 2863
2895 2893 2892 2891 2890 2888 2887 2886 2884 2883 2881 2879 2878 2877 2875 2874 2872 2871 2870 2868 2867 2866 2864 2864 2863 2862 2861 2860 2859 2859 2857 2855 2855 2857 2856 2856 2856 2856 2855 2855 2855 2856
2887 2886 2884 2883 2882 2880 2879 2877 2876 2874 2873 2871 2869 2868 2867 2865 2864 2863 2862 2860 2860 2859 2857 2856 2856 2855 2854 2853 2852 2852 2850 2848 2848 2849 2849 2849 2849 2849 2849 2849 2849 2849
2880 2878 2876 2874 2873 2872 2870 2869 2867 2866 2864 2863 2861 2860 2859 2857 2856 2855 2854 2853 2852 2852 2850 2849 2849 2848 2847 2846 2845 2845 2843 2841 2840 2842 2842 2842 2842 2842 2842 2843 2843 2843
2872 2870 2868 2866 2864 2863 2862 2860 2859 2857 2856 2854 2853 2852 2851 2850 2848 2847 2846 2846 2845 2844 2844 2842 2842 2841 2840 2839 2838 2838 2837 2835 2833 2834 2835 2836 2836 2836 2836 2836 2837 2837